Regional Weather Roundup
Issued by NWS

Home | Current Version | Previous Version | Text Only | Print | Product List | Glossary On
Versions: 1 2 3 4 5 6 7 8 9 10 11 12 13 14 15 16 17 18 19 20 21 22 23 24 25 26 27 28 29 30 31 32 33 34 35 36 37 38 39 40 41 42 43 44 45 46 47 48 49 50
000
ASUS43 KLSX 240107
RWRMO

WEATHER SUMMARY FOR MISSOURI
NATIONAL WEATHER SERVICE SPRINGFIELD MO
800 PM CDT SAT SEP 23 2017

NOTE: "FAIR" INDICATES FEW OR NO CLOUDS BELOW 12,000 FEET WITH NO
       SIGNIFICANT WEATHER AND/OR OBSTRUCTIONS TO VISIBILITY.
       CURRENT SKY AND/OR WEATHER CONDITIONS ARE NOT AVAILABLE FOR
       CHILLICOTHE AND FARMINGTON.

MOZ001>031-035>038-043-044-053-054-240200-
...NORTHERN AND WESTERN MISSOURI...

CITY           SKY/WX    TMP DP  RH WIND       PRES   REMARKS
KANSAS CTY INT PTCLDY    76  68  76 SE6       29.96R
KANSAS C DTWN  CLEAR     85  68  56 SE8       29.94S
LEE`S SUMMIT   CLEAR     81  69  67 S6        29.97S
ST JOSEPH      CLEAR     78  68  71 S5        29.94S
CHILLICOTHE      N/A     77  68  73 CALM      29.97R
KIRKSVILLE     CLEAR     78  64  61 SE6       29.99R

$$
MOZ066>068-077>081-088>096-101>105-240200-
...SOUTHWEST MISSOURI...

CITY           SKY/WX    TMP DP  RH WIND       PRES   REMARKS
SPRINGFIELD    CLEAR     78  64  61 E6        29.97S
JOPLIN         CLEAR     77  65  66 E3        29.95S
BRANSON        PTCLDY    79  63  57 SE6       29.99S

$$
MOZ032>034-039>042-045>050-055>058-069>072-240200-
...CENTRAL MISSOURI...

CITY           SKY/WX    TMP DP  RH WIND       PRES   REMARKS
COLUMBIA       CLEAR     81  66  60 E6        29.98S
JEFFERSON CITY CLEAR     81  67  62 SE6       29.95S
ROLLA          PTCLDY    79  62  56 SE6       30.00S
SEDALIA        CLEAR     80  69  69 S5        29.98S
WHITEMAN AFB   CLEAR     78  71  80 S5        29.96R
WARRENSBURG    CLEAR     79  66  65 SE3       29.95S
OSAGE BEACH    MOCLDY    77  70  79 CALM      29.98S

$$
MOZ051-052-059>065-240200-
...EAST CENTRAL MISSOURI...

CITY           SKY/WX    TMP DP  RH WIND       PRES   REMARKS
ST LOUIS INTL  CLEAR     83  63  50 E7        30.00R
SPIRIT OF STL  CLEAR     75  68  78 CALM      29.97S
ST CHARLES     CLEAR     77  66  68 NE5       29.98R

$$
MOZ072>076-082>087-097>100-106>115-240200-
...SOUTH CENTRAL AND SOUTHEAST MISSOURI...

CITY           SKY/WX    TMP DP  RH WIND       PRES   REMARKS
CAPE GIRARDEAU CLEAR     78  66  66 E3        29.98R
FARMINGTON     CLEAR     78  65  63 E3        30.02R
POPLAR BLUFF   CLEAR     79  65  62 SE3       29.97R
WEST PLAINS    CLEAR     77  63  61 CALM      30.01R

$$


USA.gov is the U.S. government's official web portal to all federal, state and local government web resources and services.